| time (UTC) | temp F | wind direction | speed MPH | gust MPH | rain 1hr in | rain 24hr in | rain mn in | humidity % | barometer mb |
| 20260509011503 | 74 | 278 | 1.0 | 7.0 | 0.00 | 0.01 | 0.01 | 26 | 1004.5 |
| 20260509011003 | 74 | 298 | 1.0 | 7.0 | 0.00 | 0.01 | 0.01 | 28 | 1004.5 |
| 20260509010503 | 75 | 298 | 1.0 | 3.0 | 0.00 | 0.01 | 0.01 | 27 | 1004.4 |
| 20260509010212 | 75 | 288 | 1.0 | 6.0 | 0.00 | 0.01 | 0.01 | 26 | 1004.4 |
| 20260509005503 | 75 | 296 | 1.0 | 6.0 | 0.00 | 0.01 | 0.01 | 26 | 1004.3 |
| 20260509005003 | 76 | 311 | 1.0 | 3.0 | 0.00 | 0.01 | 0.01 | 26 | 1004.3 |
| 20260509004503 | 76 | 318 | 1.0 | 9.0 | 0.00 | 0.01 | 0.01 | 26 | 1004.3 |
| 20260509004003 | 76 | 324 | 2.0 | 9.0 | 0.00 | 0.01 | 0.01 | 26 | 1004.2 |
| 20260509003503 | 76 | 288 | 2.0 | 9.0 | 0.00 | 0.01 | 0.01 | 26 | 1004.2 |
| 20260509003003 | 77 | 261 | 2.0 | 6.0 | 0.00 | 0.01 | 0.01 | 30 | 1004.2 |
| 20260509002713 | 77 | 257 | 2.0 | 4.0 | 0.00 | 0.01 | 0.01 | 30 | 1004.2 |
| 20260509002003 | 77 | 267 | 2.0 | 7.0 | 0.00 | 0.01 | 0.01 | 29 | 1004.1 |
| 20260509001503 | 77 | 256 | 3.0 | 7.0 | 0.00 | 0.01 | 0.01 | 30 | 1004.1 |
| 20260509001003 | 77 | 243 | 3.0 | 10.0 | 0.00 | 0.01 | 0.01 | 29 | 1004.0 |
| 20260509000503 | 77 | 251 | 4.0 | 10.0 | 0.00 | 0.01 | 0.01 | 27 | 1004.0 |
| 20260509000214 | 78 | 257 | 4.0 | 10.0 | 0.00 | 0.01 | 0.01 | 27 | 1004.1 |
| 20260508235503 | 78 | 265 | 5.0 | 13.0 | 0.00 | 0.01 | 0.01 | 26 | 1004.1 |
| 20260508235003 | 78 | 268 | 6.0 | 13.0 | 0.00 | 0.01 | 0.01 | 27 | 1004.1 |
| 20260508234504 | 78 | 264 | 6.0 | 13.0 | 0.00 | 0.01 | 0.01 | 26 | 1004.2 |
| 20260508234003 | 78 | 251 | 6.0 | 15.0 | 0.00 | 0.01 | 0.01 | 26 | 1004.1 |
| 20260508233503 | 78 | 251 | 5.0 | 15.0 | 0.00 | 0.01 | 0.01 | 26 | 1004.1 |
| 20260508233003 | 78 | 254 | 6.0 | 17.0 | 0.00 | 0.01 | 0.01 | 27 | 1004.2 |
| 20260508232503 | 78 | 251 | 6.0 | 17.0 | 0.00 | 0.01 | 0.01 | 25 | 1004.3 |
| 20260508232003 | 78 | 247 | 5.0 | 12.0 | 0.00 | 0.01 | 0.01 | 26 | 1004.2 |
| 20260508231504 | 78 | 237 | 6.0 | 12.0 | 0.00 | 0.01 | 0.01 | 26 | 1004.2 |
| 20260508231003 | 79 | 224 | 5.0 | 13.0 | 0.00 | 0.01 | 0.01 | 27 | 1004.2 |
| 20260508230503 | 79 | 222 | 6.0 | 13.0 | 0.00 | 0.01 | 0.01 | 26 | 1004.2 |
| 20260508230003 | 79 | 235 | 6.0 | 13.0 | 0.00 | 0.01 | 0.01 | 27 | 1004.2 |
| 20260508225503 | 79 | 244 | 6.0 | 13.0 | 0.00 | 0.01 | 0.01 | 27 | 1004.2 |
| 20260508225213 | 80 | 243 | 7.0 | 13.0 | 0.00 | 0.01 | 0.01 | 26 | 1004.3 |
| 20260508224503 | 80 | 251 | 5.0 | 13.0 | 0.00 | 0.01 | 0.01 | 27 | 1004.3 |
| 20260508224003 | 79 | 258 | 4.0 | 11.0 | 0.00 | 0.01 | 0.01 | 28 | 1004.4 |
| 20260508223503 | 79 | 260 | 5.0 | 13.0 | 0.00 | 0.01 | 0.01 | 26 | 1004.4 |
| 20260508223003 | 79 | 249 | 6.0 | 15.0 | 0.00 | 0.01 | 0.01 | 27 | 1004.5 |
| 20260508222503 | 79 | 244 | 5.0 | 15.0 | 0.00 | 0.01 | 0.01 | 27 | 1004.5 |
| 20260508222003 | 79 | 263 | 4.0 | 12.0 | 0.00 | 0.01 | 0.01 | 31 | 1004.5 |
| 20260508221504 | 78 | 253 | 5.0 | 11.0 | 0.00 | 0.01 | 0.01 | 29 | 1004.6 |
| 20260508221004 | 78 | 212 | 4.0 | 10.0 | 0.00 | 0.01 | 0.01 | 30 | 1004.7 |
| 20260508220503 | 78 | 190 | 3.0 | 7.0 | 0.00 | 0.01 | 0.01 | 30 | 1004.7 |
| 20260508220003 | 77 | 199 | 4.0 | 8.0 | 0.00 | 0.01 | 0.01 | 28 | 1004.8 |
| 20260508215503 | 77 | 199 | 3.0 | 8.0 | 0.00 | 0.01 | 0.01 | 29 | 1004.9 |
| 20260508215003 | 77 | 219 | 3.0 | 6.0 | 0.00 | 0.01 | 0.01 | 30 | 1005.0 |
| 20260508214503 | 77 | 249 | 3.0 | 7.0 | 0.00 | 0.01 | 0.01 | 30 | 1004.9 |
| 20260508214213 | 77 | 258 | 3.0 | 9.0 | 0.00 | 0.01 | 0.01 | 32 | 1004.9 |
| 20260508213503 | 76 | 246 | 3.0 | 9.0 | 0.00 | 0.01 | 0.01 | 30 | 1005.0 |
| 20260508213003 | 76 | 210 | 3.0 | 8.0 | 0.00 | 0.01 | 0.01 | 28 | 1005.0 |
| 20260508212503 | 76 | 191 | 3.0 | 10.0 | 0.00 | 0.01 | 0.01 | 27 | 1005.0 |
| 20260508212003 | 77 | 196 | 4.0 | 10.0 | 0.00 | 0.01 | 0.01 | 29 | 1005.0 |
| 20260508211503 | 77 | 185 | 4.0 | 10.0 | 0.00 | 0.01 | 0.01 | 28 | 1005.2 |
| 20260508211004 | 78 | 186 | 5.0 | 10.0 | 0.00 | 0.01 | 0.01 | 29 | 1005.1 |
| 20260508210503 | 78 | 203 | 4.0 | 9.0 | 0.00 | 0.01 | 0.01 | 27 | 1005.2 |
| 20260508210003 | 78 | 228 | 4.0 | 12.0 | 0.00 | 0.01 | 0.01 | 28 | 1005.3 |
| 20260508205503 | 78 | 243 | 5.0 | 16.0 | 0.00 | 0.01 | 0.01 | 28 | 1005.4 |
| 20260508205003 | 77 | 234 | 4.0 | 16.0 | 0.00 | 0.01 | 0.01 | 30 | 1005.5 |
| 20260508204503 | 78 | 194 | 2.0 | 6.0 | 0.00 | 0.01 | 0.01 | 29 | 1005.5 |
| 20260508204004 | 78 | 198 | 3.0 | 7.0 | 0.00 | 0.01 | 0.01 | 25 | 1005.7 |
| 20260508203503 | 79 | 201 | 3.0 | 7.0 | 0.00 | 0.01 | 0.01 | 28 | 1005.7 |
| 20260508203213 | 79 | 210 | 3.0 | 8.0 | 0.00 | 0.01 | 0.01 | 27 | 1005.7 |
| 20260508202503 | 78 | 214 | 5.0 | 11.0 | 0.00 | 0.01 | 0.01 | 26 | 1005.8 |
| 20260508202003 | 78 | 221 | 5.0 | 11.0 | 0.00 | 0.01 | 0.01 | 28 | 1005.9 |
| 20260508201503 | 78 | 211 | 3.0 | 9.0 | 0.00 | 0.01 | 0.01 | 29 | 1006.0 |
| 20260508201003 | 77 | 187 | 2.0 | 6.0 | 0.00 | 0.01 | 0.01 | 37 | 1006.0 |
| 20260508200503 | 77 | 179 | 2.0 | 6.0 | 0.00 | 0.01 | 0.01 | 35 | 1006.1 |
| 20260508200003 | 76 | 188 | 1.0 | 4.0 | 0.00 | 0.01 | 0.01 | 35 | 1006.2 |
| 20260508195503 | 76 | 200 | 2.0 | 5.0 | 0.00 | 0.01 | 0.01 | 28 | 1006.3 |
| 20260508195003 | 76 | 216 | 2.0 | 5.0 | 0.00 | 0.01 | 0.01 | 29 | 1006.4 |
| 20260508194503 | 76 | 254 | 2.0 | 5.0 | 0.00 | 0.01 | 0.01 | 31 | 1006.4 |
| 20260508194003 | 76 | 282 | 2.0 | 6.0 | 0.00 | 0.01 | 0.01 | 26 | 1006.6 |
| 20260508193503 | 76 | 280 | 2.0 | 6.0 | 0.00 | 0.01 | 0.01 | 35 | 1006.6 |
| 20260508193003 | 76 | 173 | 2.0 | 6.0 | 0.00 | 0.01 | 0.01 | 29 | 1006.6 |
| 20260508192503 | 77 | 251 | 2.0 | 6.0 | 0.00 | 0.01 | 0.01 | 26 | 1006.6 |
| 20260508192003 | 77 | 233 | 2.0 | 6.0 | 0.00 | 0.01 | 0.01 | 31 | 1006.7 |
| 20260508191503 | 77 | 185 | 4.0 | 11.0 | 0.00 | 0.01 | 0.01 | 29 | 1006.7 |
| 20260508191003 | 76 | 189 | 4.0 | 11.0 | 0.00 | 0.01 | 0.01 | 26 | 1006.8 |
| 20260508190503 | 76 | 202 | 3.0 | 8.0 | 0.00 | 0.01 | 0.01 | 26 | 1006.8 |
| 20260508190003 | 75 | 199 | 3.0 | 8.0 | 0.00 | 0.01 | 0.01 | 29 | 1006.9 |
| 20260508185503 | 75 | 198 | 3.0 | 7.0 | 0.00 | 0.01 | 0.01 | 29 | 1007.0 |
| 20260508185003 | 75 | 205 | 3.0 | 7.0 | 0.00 | 0.01 | 0.01 | 28 | 1006.9 |
| 20260508184504 | 75 | 250 | 2.0 | 5.0 | 0.00 | 0.01 | 0.01 | 29 | 1007.0 |
| 20260508184003 | 75 | 266 | 2.0 | 5.0 | 0.00 | 0.01 | 0.01 | 29 | 1007.0 |
| 20260508183503 | 75 | 228 | 2.0 | 6.0 | 0.00 | 0.01 | 0.01 | 32 | 1007.2 |
| 20260508183008 | 75 | 229 | 2.0 | 6.0 | 0.00 | 0.01 | 0.01 | 28 | 1007.3 |
| 20260508182503 | 74 | 261 | 2.0 | 5.0 | 0.00 | 0.01 | 0.01 | 33 | 1007.3 |
| 20260508182003 | 74 | 30 | 2.0 | 6.0 | 0.00 | 0.01 | 0.01 | 29 | 1007.3 |
| 20260508181503 | 73 | 73 | 2.0 | 6.0 | 0.00 | 0.01 | 0.01 | 33 | 1007.4 |
| 20260508181003 | 73 | 54 | 3.0 | 7.0 | 0.00 | 0.01 | 0.01 | 32 | 1007.4 |
| 20260508180713 | 73 | 29 | 3.0 | 7.0 | 0.00 | 0.01 | 0.01 | 36 | 1007.5 |
| 20260508180003 | 73 | 228 | 2.0 | 7.0 | 0.00 | 0.01 | 0.01 | 33 | 1007.6 |
| 20260508175503 | 73 | 195 | 1.0 | 5.0 | 0.00 | 0.01 | 0.01 | 29 | 1007.7 |
| 20260508175003 | 72 | 192 | 2.0 | 5.0 | 0.00 | 0.01 | 0.01 | 28 | 1007.6 |
| 20260508174503 | 73 | 206 | 2.0 | 6.0 | 0.00 | 0.01 | 0.01 | 29 | 1007.7 |
| 20260508174003 | 72 | 46 | 2.0 | 6.0 | 0.00 | 0.01 | 0.01 | 27 | 1007.7 |
| 20260508173504 | 72 | 59 | 2.0 | 4.0 | 0.00 | 0.01 | 0.01 | 30 | 1007.9 |
| 20260508173003 | 72 | 60 | 1.0 | 4.0 | 0.00 | 0.01 | 0.01 | 31 | 1007.9 |
| 20260508172503 | 71 | 57 | 1.0 | 3.0 | 0.00 | 0.01 | 0.01 | 44 | 1007.9 |
| 20260508172003 | 70 | 55 | 1.0 | 3.0 | 0.00 | 0.01 | 0.01 | 32 | 1008.0 |
| 20260508171714 | 70 | 55 | 1.0 | 3.0 | 0.00 | 0.01 | 0.01 | 35 | 1008.0 |
| 20260508171003 | 70 | 48 | 1.0 | 3.0 | 0.00 | 0.01 | 0.01 | 32 | 1008.1 |
| 20260508170504 | 70 | 47 | 1.0 | 3.0 | 0.00 | 0.01 | 0.01 | 36 | 1008.1 |
| 20260508170003 | 70 | 48 | 1.0 | 2.0 | 0.00 | 0.01 | 0.01 | 35 | 1008.1 |
| 20260508165503 | 69 | 48 | 1.0 | 4.0 | 0.00 | 0.01 | 0.01 | 34 | 1008.1 |
| 20260508165003 | 70 | 48 | 2.0 | 4.0 | 0.00 | 0.01 | 0.01 | 34 | 1008.1 |
| 20260508164508 | 70 | 45 | 3.0 | 7.0 | 0.00 | 0.01 | 0.01 | 35 | 1008.1 |
| 20260508164003 | 70 | 66 | 3.0 | 7.0 | 0.00 | 0.01 | 0.01 | 31 | 1008.1 |
| 20260508163503 | 71 | 187 | 2.0 | 6.0 | 0.00 | 0.01 | 0.01 | 34 | 1008.1 |
| 20260508163003 | 71 | 250 | 2.0 | 5.0 | 0.00 | 0.01 | 0.01 | 34 | 1008.1 |
| 20260508162503 | 71 | 228 | 2.0 | 5.0 | 0.00 | 0.01 | 0.01 | 36 | 1008.0 |
| 20260508162003 | 71 | 187 | 2.0 | 6.0 | 0.00 | 0.01 | 0.01 | 36 | 1008.1 |
| 20260508161503 | 70 | 190 | 3.0 | 7.0 | 0.00 | 0.01 | 0.01 | 39 | 1008.1 |
| 20260508161213 | 70 | 198 | 3.0 | 7.0 | 0.00 | 0.01 | 0.01 | 35 | 1008.1 |
| 20260508160505 | 69 | 201 | 3.0 | 5.0 | 0.00 | 0.01 | 0.01 | 41 | 1008.1 |
| 20260508160003 | 68 | 176 | 3.0 | 6.0 | 0.00 | 0.01 | 0.01 | 38 | 1008.2 |
| 20260508155503 | 68 | 165 | 2.0 | 6.0 | 0.00 | 0.01 | 0.01 | 40 | 1008.3 |
| 20260508155003 | 68 | 160 | 1.0 | 5.0 | 0.00 | 0.01 | 0.01 | 40 | 1008.3 |
| 20260508154503 | 67 | 152 | 1.0 | 4.0 | 0.00 | 0.01 | 0.01 | 44 | 1008.3 |
| 20260508154003 | 67 | 167 | 1.0 | 4.0 | 0.00 | 0.01 | 0.01 | 47 | 1008.4 |
| 20260508153503 | 66 | 180 | 2.0 | 5.0 | 0.00 | 0.01 | 0.01 | 48 | 1008.4 |
| 20260508153003 | 65 | 174 | 2.0 | 6.0 | 0.00 | 0.01 | 0.01 | 46 | 1008.4 |
| 20260508152503 | 65 | 154 | 2.0 | 6.0 | 0.00 | 0.01 | 0.01 | 50 | 1008.4 |
| 20260508152003 | 64 | 145 | 2.0 | 4.0 | 0.00 | 0.01 | 0.01 | 50 | 1008.5 |
| 20260508151503 | 64 | 147 | 2.0 | 4.0 | 0.00 | 0.01 | 0.01 | 52 | 1008.5 |
| 20260508151003 | 63 | 147 | 2.0 | 5.0 | 0.00 | 0.01 | 0.01 | 53 | 1008.5 |
| 20260508150503 | 62 | 151 | 2.0 | 5.0 | 0.00 | 0.01 | 0.01 | 54 | 1008.6 |
| 20260508150004 | 62 | 151 | 2.0 | 5.0 | 0.00 | 0.01 | 0.01 | 52 | 1008.6 |
| 20260508145503 | 61 | 142 | 2.0 | 5.0 | 0.00 | 0.01 | 0.01 | 51 | 1008.5 |
| 20260508145213 | 61 | 136 | 2.0 | 4.0 | 0.00 | 0.01 | 0.01 | 56 | 1008.5 |
| 20260508144503 | 61 | 140 | 2.0 | 5.0 | 0.00 | 0.01 | 0.01 | 53 | 1008.4 |
| 20260508144003 | 61 | 152 | 2.0 | 5.0 | 0.00 | 0.01 | 0.01 | 52 | 1008.6 |
| 20260508143503 | 60 | 164 | 2.0 | 5.0 | 0.00 | 0.01 | 0.01 | 54 | 1008.6 |
| 20260508143003 | 60 | 168 | 2.0 | 5.0 | 0.00 | 0.01 | 0.01 | 54 | 1008.7 |
| 20260508142503 | 60 | 170 | 2.0 | 5.0 | 0.00 | 0.01 | 0.01 | 55 | 1008.7 |
| 20260508142003 | 59 | 177 | 2.0 | 5.0 | 0.00 | 0.01 | 0.01 | 55 | 1008.7 |
| 20260508141713 | 59 | 178 | 3.0 | 5.0 | 0.00 | 0.01 | 0.01 | 55 | 1008.7 |
| 20260508141003 | 58 | 165 | 3.0 | 5.0 | 0.00 | 0.01 | 0.01 | 57 | 1008.7 |
| 20260508140503 | 58 | 152 | 2.0 | 5.0 | 0.00 | 0.01 | 0.01 | 55 | 1008.8 |
| 20260508140003 | 57 | 82 | 2.0 | 5.0 | 0.00 | 0.01 | 0.01 | 62 | 1008.7 |
| 20260508135503 | 56 | 53 | 1.0 | 4.0 | 0.00 | 0.01 | 0.01 | 62 | 1008.7 |
| 20260508135003 | 55 | 0 | 0.0 | 1.0 | 0.00 | 0.01 | 0.01 | 65 | 1008.7 |
| 20260508134503 | 54 | 0 | 0.0 | 1.0 | 0.00 | 0.01 | 0.01 | 67 | 1008.7 |
| 20260508134003 | 54 | 0 | 0.0 | 0.0 | 0.00 | 0.01 | 0.01 | 71 | 1008.7 |
| 20260508133503 | 54 | 0 | 0.0 | 0.0 | 0.00 | 0.01 | 0.01 | 72 | 1008.7 |
| 20260508133004 | 54 | 0 | 0.0 | 0.0 | 0.00 | 0.01 | 0.01 | 71 | 1008.7 |
| 20260508132503 | 54 | 38 | 0.0 | 2.0 | 0.00 | 0.01 | 0.01 | 71 | 1008.8 |
| 20260508132003 | 54 | 38 | 0.0 | 2.0 | 0.00 | 0.01 | 0.01 | 70 | 1008.7 |
| 20260508131503 | 53 | 38 | 0.0 | 2.0 | 0.00 | 0.01 | 0.01 | 72 | 1008.7 |
| 20260508131003 | 53 | 38 | 0.0 | 2.0 | 0.00 | 0.01 | 0.01 | 72 | 1008.7 |
| 20260508130503 | 53 | 0 | 0.0 | 0.0 | 0.00 | 0.01 | 0.01 | 71 | 1008.6 |
| 20260508130004 | 53 | 0 | 0.0 | 0.0 | 0.00 | 0.01 | 0.01 | 72 | 1008.4 |
| 20260508125503 | 53 | 0 | 0.0 | 0.0 | 0.00 | 0.01 | 0.01 | 70 | 1008.5 |
| 20260508125214 | 53 | 0 | 0.0 | 0.0 | 0.00 | 0.01 | 0.01 | 69 | 1008.3 |
| 20260508124503 | 53 | 0 | 0.0 | 0.0 | 0.00 | 0.01 | 0.01 | 69 | 1008.2 |
| 20260508124003 | 53 | 0 | 0.0 | 0.0 | 0.00 | 0.01 | 0.01 | 68 | 1008.3 |
| 20260508123503 | 53 | 0 | 0.0 | 0.0 | 0.00 | 0.01 | 0.01 | 68 | 1008.2 |
| 20260508123004 | 53 | 38 | 0.0 | 1.0 | 0.00 | 0.01 | 0.01 | 66 | 1008.3 |
| 20260508122503 | 53 | 38 | 1.0 | 2.0 | 0.00 | 0.01 | 0.01 | 67 | 1008.3 |
| 20260508122003 | 53 | 38 | 1.0 | 2.0 | 0.00 | 0.01 | 0.01 | 67 | 1008.3 |
| 20260508121503 | 53 | 37 | 1.0 | 4.0 | 0.00 | 0.01 | 0.01 | 66 | 1008.4 |
| 20260508121003 | 53 | 37 | 1.0 | 4.0 | 0.00 | 0.01 | 0.01 | 68 | 1008.4 |
| 20260508120503 | 53 | 37 | 1.0 | 3.0 | 0.00 | 0.01 | 0.01 | 66 | 1008.3 |
| 20260508120003 | 53 | 37 | 0.0 | 2.0 | 0.00 | 0.01 | 0.01 | 65 | 1008.4 |
| 20260508115503 | 53 | 37 | 1.0 | 3.0 | 0.00 | 0.01 | 0.01 | 62 | 1008.4 |
| 20260508115003 | 52 | 37 | 2.0 | 3.0 | 0.00 | 0.01 | 0.01 | 63 | 1008.5 |
| 20260508114503 | 52 | 37 | 1.0 | 3.0 | 0.00 | 0.01 | 0.01 | 61 | 1008.6 |
| 20260508114003 | 52 | 38 | 1.0 | 3.0 | 0.00 | 0.01 | 0.01 | 61 | 1008.4 |
| 20260508113503 | 51 | 0 | 0.0 | 0.0 | 0.00 | 0.01 | 0.01 | 62 | 1008.5 |
| 20260508113213 | 51 | 0 | 0.0 | 0.0 | 0.00 | 0.01 | 0.01 | 60 | 1008.4 |
| 20260508112503 | 51 | 0 | 0.0 | 1.0 | 0.00 | 0.01 | 0.01 | 61 | 1008.4 |
| 20260508112003 | 51 | 0 | 0.0 | 0.0 | 0.00 | 0.01 | 0.01 | 65 | 1008.3 |
| 20260508111503 | 51 | 0 | 0.0 | 0.0 | 0.00 | 0.01 | 0.01 | 59 | 1008.3 |
| 20260508111003 | 51 | 37 | 0.0 | 1.0 | 0.00 | 0.01 | 0.01 | 59 | 1008.4 |
| 20260508110503 | 51 | 37 | 0.0 | 1.0 | 0.00 | 0.01 | 0.01 | 61 | 1008.4 |
| 20260508110003 | 51 | 0 | 0.0 | 1.0 | 0.00 | 0.01 | 0.01 | 61 | 1008.4 |
| 20260508105503 | 51 | 38 | 0.0 | 1.0 | 0.00 | 0.01 | 0.01 | 57 | 1008.3 |
| 20260508105003 | 52 | 38 | 1.0 | 2.0 | 0.00 | 0.01 | 0.01 | 61 | 1008.4 |
| 20260508104714 | 52 | 38 | 1.0 | 2.0 | 0.00 | 0.01 | 0.01 | 60 | 1008.4 |
| 20260508104003 | 52 | 38 | 0.0 | 1.0 | 0.00 | 0.01 | 0.01 | 57 | 1008.5 |
| 20260508103503 | 52 | 0 | 0.0 | 0.0 | 0.01 | 0.01 | 0.01 | 54 | 1008.5 |
| 20260508103003 | 52 | 38 | 0.0 | 2.0 | 0.01 | 0.01 | 0.01 | 54 | 1008.4 |
| 20260508102503 | 53 | 37 | 1.0 | 4.0 | 0.01 | 0.01 | 0.01 | 55 | 1008.3 |
| 20260508102003 | 53 | 37 | 2.0 | 4.0 | 0.01 | 0.01 | 0.01 | 56 | 1008.6 |
| 20260508101503 | 52 | 44 | 2.0 | 8.0 | 0.01 | 0.01 | 0.01 | 55 | 1008.8 |
| 20260508101003 | 52 | 50 | 1.0 | 8.0 | 0.01 | 0.01 | 0.01 | 57 | 1008.9 |
| 20260508100503 | 52 | 83 | 0.0 | 2.0 | 0.01 | 0.01 | 0.01 | 59 | 1008.7 |
| 20260508100004 | 52 | 0 | 0.0 | 0.0 | 0.01 | 0.01 | 0.01 | 60 | 1008.8 |
| 20260508095504 | 52 | 0 | 0.0 | 0.0 | 0.01 | 0.01 | 0.01 | 60 | 1008.8 |
| 20260508095003 | 52 | 83 | 0.0 | 2.0 | 0.01 | 0.01 | 0.01 | 56 | 1008.8 |
| 20260508094503 | 52 | 83 | 0.0 | 2.0 | 0.01 | 0.01 | 0.01 | 60 | 1008.8 |
| 20260508094212 | 52 | 83 | 1.0 | 3.0 | 0.01 | 0.01 | 0.01 | 60 | 1008.7 |
| 20260508093503 | 52 | 83 | 1.0 | 3.0 | 0.00 | 0.00 | 0.00 | 56 | 1008.9 |
| 20260508093003 | 53 | 83 | 1.0 | 2.0 | 0.00 | 0.00 | 0.00 | 59 | 1008.9 |
| 20260508092503 | 53 | 84 | 1.0 | 4.0 | 0.00 | 0.00 | 0.00 | 56 | 1008.8 |
| 20260508092212 | 53 | 84 | 1.0 | 4.0 | 0.00 | 0.00 | 0.00 | 56 | 1008.8 |
| 20260508091503 | 53 | 0 | 0.0 | 0.0 | 0.00 | 0.00 | 0.00 | 57 | 1008.7 |
| 20260508091003 | 53 | 0 | 0.0 | 0.0 | 0.00 | 0.00 | 0.00 | 58 | 1008.8 |
| 20260508090503 | 54 | 0 | 0.0 | 0.0 | 0.00 | 0.00 | 0.00 | 56 | 1008.8 |
| 20260508090003 | 54 | 0 | 0.0 | 0.0 | 0.00 | 0.00 | 0.00 | 57 | 1008.8 |
| 20260508085503 | 54 | 0 | 0.0 | 0.0 | 0.00 | 0.00 | 0.00 | 57 | 1008.8 |
| 20260508085003 | 54 | 0 | 0.0 | 0.0 | 0.00 | 0.00 | 0.00 | 59 | 1009.0 |
| 20260508084503 | 55 | 0 | 0.0 | 0.0 | 0.00 | 0.00 | 0.00 | 57 | 1008.9 |
| 20260508084003 | 55 | 0 | 0.0 | 0.0 | 0.00 | 0.00 | 0.00 | 57 | 1008.7 |
| 20260508083503 | 55 | 0 | 0.0 | 0.0 | 0.00 | 0.00 | 0.00 | 61 | 1008.8 |
| 20260508083003 | 55 | 0 | 0.0 | 0.0 | 0.00 | 0.00 | 0.00 | 55 | 1009.3 |
| 20260508082713 | 55 | 0 | 0.0 | 0.0 | 0.00 | 0.00 | 0.00 | 54 | 1009.3 |
| 20260508082003 | 55 | 0 | 0.0 | 0.0 | 0.00 | 0.00 | 0.00 | 55 | 1008.9 |
| 20260508081503 | 55 | 0 | 0.0 | 0.0 | 0.00 | 0.00 | 0.00 | 56 | 1008.8 |
| 20260508081003 | 56 | 0 | 0.0 | 0.0 | 0.00 | 0.00 | 0.00 | 56 | 1008.9 |
| 20260508080503 | 56 | 0 | 0.0 | 0.0 | 0.00 | 0.00 | 0.00 | 54 | 1008.8 |
| 20260508080004 | 56 | 0 | 0.0 | 0.0 | 0.00 | 0.00 | 0.00 | 54 | 1008.9 |
| 20260508075503 | 56 | 0 | 0.0 | 0.0 | 0.00 | 0.00 | 0.00 | 54 | 1009.1 |
| 20260508075003 | 56 | 77 | 0.0 | 2.0 | 0.00 | 0.00 | 0.00 | 55 | 1009.2 |
| 20260508074713 | 56 | 77 | 0.0 | 2.0 | 0.00 | 0.00 | 0.00 | 54 | 1009.4 |
| 20260508074003 | 56 | 77 | 0.0 | 2.0 | 0.00 | 0.00 | 0.00 | 52 | 1009.4 |
| 20260508073503 | 56 | 76 | 0.0 | 2.0 | 0.00 | 0.00 | 0.00 | 50 | 1009.1 |
| 20260508073003 | 56 | 0 | 0.0 | 0.0 | 0.00 | 0.00 | 0.00 | 47 | 1009.1 |
| 20260508072503 | 56 | 77 | 0.0 | 1.0 | 0.00 | 0.00 | 0.00 | 50 | 1008.9 |
| 20260508072004 | 57 | 66 | 1.0 | 4.0 | 0.00 | 0.00 | 0.00 | 49 | 1009.0 |
| 20260508071503 | 57 | 49 | 2.0 | 5.0 | 0.00 | 0.00 | 0.00 | 49 | 1009.0 |
| 20260508071003 | 56 | 23 | 2.0 | 5.0 | 0.00 | 0.00 | 0.00 | 49 | 1008.8 |
| 20260508070503 | 56 | 13 | 1.0 | 5.0 | 0.00 | 0.00 | 0.00 | 51 | 1008.7 |
| 20260508070004 | 56 | 0 | 0.0 | 0.0 | 0.00 | 0.00 | 0.00 | 50 | 1008.9 |
| 20260508065503 | 56 | 0 | 0.0 | 0.0 | 0.00 | 0.00 | 0.00 | 49 | 1009.0 |
| 20260508065005 | 56 | 346 | 0.0 | 1.0 | 0.00 | 0.00 | 0.00 | 49 | 1009.0 |
| 20260508064504 | 56 | 346 | 0.0 | 1.0 | 0.00 | 0.00 | 0.00 | 49 | 1009.0 |
| 20260508064003 | 56 | 346 | 0.0 | 1.0 | 0.00 | 0.00 | 0.00 | 50 | 1009.1 |
| 20260508063503 | 56 | 346 | 0.0 | 1.0 | 0.00 | 0.00 | 0.00 | 51 | 1009.1 |
| 20260508063003 | 56 | 0 | 0.0 | 0.0 | 0.00 | 0.00 | 0.00 | 49 | 1009.2 |
| 20260508062503 | 56 | 0 | 0.0 | 1.0 | 0.00 | 0.00 | 0.00 | 50 | 1009.3 |
| 20260508062003 | 56 | 346 | 0.0 | 1.0 | 0.00 | 0.00 | 0.00 | 51 | 1009.3 |
| 20260508061712 | 56 | 346 | 0.0 | 2.0 | 0.00 | 0.00 | 0.00 | 50 | 1009.4 |
| 20260508061003 | 57 | 349 | 2.0 | 4.0 | 0.00 | 0.00 | 0.00 | 49 | 1009.4 |
| 20260508060714 | 57 | 349 | 1.0 | 4.0 | 0.00 | 0.00 | 0.00 | 49 | 1009.3 |
| 20260508060003 | 57 | 351 | 0.0 | 1.0 | 0.00 | 0.00 | 0.00 | 47 | 1009.0 |
| 20260508055712 | 57 | 0 | 0.0 | 1.0 | 0.00 | 0.00 | 0.00 | 44 | 1009.0 |
| 20260508055003 | 57 | 351 | 0.0 | 3.0 | 0.00 | 0.00 | 0.00 | 47 | 1009.0 |
| 20260508054503 | 57 | 351 | 1.0 | 3.0 | 0.00 | 0.00 | 0.00 | 45 | 1008.9 |
| 20260508054003 | 56 | 351 | 0.0 | 2.0 | 0.00 | 0.00 | 0.00 | 46 | 1008.8 |
| 20260508053503 | 56 | 0 | 0.0 | 1.0 | 0.00 | 0.00 | 0.00 | 52 | 1008.9 |
| 20260508053213 | 57 | 0 | 0.0 | 1.0 | 0.00 | 0.00 | 0.00 | 52 | 1008.9 |
| 20260508052714 | 57 | 0 | 0.0 | 0.0 | 0.00 | 0.00 | 0.00 | 51 | 1008.9 |
| 20260508052003 | 57 | 0 | 0.0 | 0.0 | 0.00 | 0.00 | 0.00 | 48 | 1008.8 |
| 20260508051714 | 57 | 0 | 0.0 | 0.0 | 0.00 | 0.00 | 0.00 | 48 | 1008.8 |
| 20260508051003 | 56 | 351 | 0.0 | 1.0 | 0.00 | 0.00 | 0.00 | 50 | 1008.9 |
| 20260508050503 | 56 | 351 | 0.0 | 1.0 | 0.00 | 0.00 | 0.00 | 47 | 1009.0 |
| 20260508050004 | 56 | 351 | 0.0 | 1.0 | 0.00 | 0.00 | 0.00 | 49 | 1009.0 |
| 20260508045503 | 56 | 351 | 0.0 | 2.0 | 0.00 | 0.00 | 0.00 | 50 | 1009.0 |
| 20260508045003 | 56 | 351 | 0.0 | 2.0 | 0.00 | 0.00 | 0.00 | 52 | 1009.1 |
| 20260508044504 | 56 | 0 | 0.0 | 0.0 | 0.00 | 0.00 | 0.00 | 50 | 1009.1 |
| 20260508044003 | 56 | 0 | 0.0 | 0.0 | 0.00 | 0.00 | 0.00 | 47 | 1009.2 |
| 20260508043503 | 56 | 0 | 0.0 | 0.0 | 0.00 | 0.00 | 0.00 | 45 | 1009.1 |
| 20260508043003 | 56 | 0 | 0.0 | 0.0 | 0.00 | 0.00 | 0.00 | 45 | 1009.2 |
| 20260508042503 | 56 | 0 | 0.0 | 0.0 | 0.00 | 0.00 | 0.00 | 45 | 1009.2 |
| 20260508042003 | 56 | 0 | 0.0 | 0.0 | 0.00 | 0.00 | 0.00 | 44 | 1009.2 |
| 20260508041713 | 56 | 0 | 0.0 | 0.0 | 0.00 | 0.00 | 0.00 | 45 | 1009.1 |
| 20260508041003 | 56 | 0 | 0.0 | 0.0 | 0.00 | 0.00 | 0.00 | 42 | 1009.1 |
| 20260508040503 | 56 | 0 | 0.0 | 0.0 | 0.00 | 0.00 | 0.00 | 43 | 1009.3 |
| 20260508040003 | 56 | 0 | 0.0 | 1.0 | 0.00 | 0.00 | 0.00 | 44 | 1009.3 |
| 20260508035503 | 56 | 0 | 0.0 | 1.0 | 0.00 | 0.00 | 0.00 | 43 | 1009.3 |
| 20260508035003 | 57 | 351 | 0.0 | 2.0 | 0.00 | 0.00 | 0.00 | 43 | 1009.3 |
| 20260508034503 | 57 | 351 | 0.0 | 2.0 | 0.00 | 0.00 | 0.00 | 43 | 1009.1 |
| 20260508034003 | 57 | 351 | 0.0 | 1.0 | 0.00 | 0.00 | 0.00 | 43 | 1009.1 |
| 20260508033713 | 57 | 0 | 0.0 | 0.0 | 0.00 | 0.00 | 0.00 | 45 | 1009.2 |
| 20260508033003 | 57 | 0 | 0.0 | 1.0 | 0.00 | 0.00 | 0.00 | 41 | 1009.2 |
| 20260508032503 | 57 | 0 | 0.0 | 1.0 | 0.00 | 0.00 | 0.00 | 42 | 1009.2 |
| 20260508032214 | 57 | 0 | 0.0 | 0.0 | 0.00 | 0.00 | 0.00 | 42 | 1009.2 |
| 20260508031503 | 57 | 351 | 0.0 | 1.0 | 0.00 | 0.00 | 0.00 | 40 | 1009.3 |
| 20260508031214 | 58 | 351 | 0.0 | 1.0 | 0.00 | 0.00 | 0.00 | 41 | 1009.2 |
| 20260508030503 | 58 | 0 | 0.0 | 1.0 | 0.00 | 0.00 | 0.00 | 39 | 1009.1 |
| 20260508030004 | 58 | 0 | 0.0 | 0.0 | 0.00 | 0.00 | 0.00 | 41 | 1009.1 |
| 20260508025503 | 59 | 0 | 0.0 | 0.0 | 0.00 | 0.00 | 0.00 | 46 | 1009.1 |
| 20260508025003 | 59 | 0 | 0.0 | 0.0 | 0.00 | 0.00 | 0.00 | 39 | 1009.0 |
| 20260508024503 | 60 | 0 | 0.0 | 0.0 | 0.00 | 0.00 | 0.00 | 39 | 1009.0 |
| 20260508024215 | 60 | 0 | 0.0 | 0.0 | 0.00 | 0.00 | 0.00 | 37 | 1008.9 |
| 20260508023503 | 61 | 351 | 0.0 | 2.0 | 0.00 | 0.00 | 0.00 | 38 | 1008.9 |
| 20260508023003 | 61 | 351 | 0.0 | 2.0 | 0.00 | 0.00 | 0.00 | 38 | 1008.8 |
| 20260508022503 | 61 | 0 | 0.0 | 1.0 | 0.00 | 0.00 | 0.00 | 34 | 1008.9 |
| 20260508022003 | 62 | 0 | 0.0 | 0.0 | 0.00 | 0.00 | 0.00 | 33 | 1008.8 |
| 20260508021503 | 62 | 351 | 0.0 | 1.0 | 0.00 | 0.00 | 0.00 | 33 | 1008.7 |
| 20260508021003 | 62 | 351 | 0.0 | 1.0 | 0.00 | 0.00 | 0.00 | 34 | 1008.6 |
| 20260508020503 | 63 | 351 | 0.0 | 1.0 | 0.00 | 0.00 | 0.00 | 33 | 1008.5 |
| 20260508020003 | 63 | 0 | 0.0 | 0.0 | 0.00 | 0.00 | 0.00 | 34 | 1008.3 |
| 20260508015503 | 64 | 0 | 0.0 | 0.0 | 0.00 | 0.00 | 0.00 | 32 | 1008.3 |
| 20260508015214 | 64 | 0 | 0.0 | 0.0 | 0.00 | 0.00 | 0.00 | 32 | 1008.4 |
| 20260508014712 | 64 | 351 | 0.0 | 1.0 | 0.00 | 0.00 | 0.00 | 31 | 1008.3 |
| 20260508014003 | 65 | 351 | 0.0 | 1.0 | 0.00 | 0.00 | 0.00 | 30 | 1008.4 |
| 20260508013503 | 66 | 351 | 0.0 | 1.0 | 0.00 | 0.00 | 0.00 | 29 | 1008.3 |
| 20260508013213 | 66 | 351 | 0.0 | 1.0 | 0.00 | 0.00 | 0.00 | 30 | 1008.3 |
| 20260508012503 | 66 | 347 | 0.0 | 4.0 | 0.00 | 0.00 | 0.00 | 28 | 1008.2 |
| 20260508012003 | 67 | 346 | 1.0 | 4.0 | 0.00 | 0.00 | 0.00 | 27 | 1008.2 |